• In Hungary
  • List of Countries
  • For 7 days
  • Water Temperature
  • Satellite Maps
  • Weather Map
  • News
  • Weather Widgets
  • user-avatar
    Login

    Hourly Weather Tournai

    Today, 23 June, Saturday

    Time Temperature Precipitation Wind Pressure Humidity
    00:00 +9°C° 0 mm 1 mps 768 mmHg 91%
    01:00 +9°C° 0 mm 1 mps 768 mmHg 91%
    02:00 +9°C° 0 mm 1 mps 768 mmHg 91%
    03:00 +9°C° 0 mm 1 mps 768 mmHg 91%
    04:00 +10°C° 0 mm 1 mps 768 mmHg 88%
    05:00 +11°C° 0 mm 1 mps 768 mmHg 84%
    06:00 +13°C° 0 mm 1 mps 768 mmHg 80%
    07:00 +14°C° 0 mm 2 mps 768 mmHg 73%
    08:00 +16°C° 0 mm 2 mps 768 mmHg 67%
    09:00 +17°C° 0 mm 2 mps 767 mmHg 61%
    10:00 +18°C° 0 mm 2 mps 767 mmHg 59%
    11:00 +19°C° 0 mm 3 mps 767 mmHg 57%
    12:00 +20°C° 0 mm 3 mps 767 mmHg 54%
    13:00 +21°C° 0 mm 3 mps 766 mmHg 55%
    14:00 +21°C° 0 mm 3 mps 766 mmHg 56%
    15:00 +21°C° 0 mm 3 mps 766 mmHg 57%
    16:00 +20°C° 0 mm 3 mps 765 mmHg 61%
    17:00 +20°C° 0 mm 3 mps 765 mmHg 64%
    18:00 +19°C° 0 mm 3 mps 765 mmHg 68%
    19:00 +18°C° 0 mm 2 mps 765 mmHg 73%
    20:00 +16°C° 0 mm 2 mps 765 mmHg 77%
    21:00 +14°C° 0 mm 2 mps 765 mmHg 82%
    22:00 +14°C° 0 mm 1 mps 765 mmHg 84%
    23:00 +13°C° 0 mm 1 mps 765 mmHg 85%

    Tomorrow, 24 June, Sunday

    Time Temperature Precipitation Wind Pressure Humidity
    00:00 +12°C° 0 mm 1 mps 765 mmHg 87%
    01:00 +12°C° 0 mm 1 mps 765 mmHg 88%
    02:00 +12°C° 0 mm 1 mps 764 mmHg 89%
    03:00 +11°C° 0 mm 1 mps 764 mmHg 89%
    04:00 +12°C° 0 mm 1 mps 764 mmHg 87%
    05:00 +13°C° 0 mm 1 mps 764 mmHg 84%
    06:00 +14°C° 0 mm 2 mps 764 mmHg 82%
    07:00 +15°C° 0 mm 2 mps 764 mmHg 75%
    08:00 +17°C° 0 mm 3 mps 764 mmHg 68%
    09:00 +18°C° 0 mm 3 mps 765 mmHg 61%
    10:00 +19°C° 0 mm 3 mps 765 mmHg 58%
    11:00 +20°C° 0 mm 3 mps 765 mmHg 56%
    12:00 +21°C° 0 mm 3 mps 764 mmHg 54%
    13:00 +21°C° 0 mm 4 mps 764 mmHg 55%
    14:00 +21°C° 0 mm 4 mps 764 mmHg 57%
    15:00 +21°C° 0 mm 4 mps 764 mmHg 59%
    16:00 +20°C° 0 mm 4 mps 764 mmHg 63%
    17:00 +20°C° 0 mm 4 mps 764 mmHg 67%
    18:00 +19°C° 0 mm 4 mps 764 mmHg 71%
    19:00 +18°C° 0 mm 3 mps 764 mmHg 75%
    20:00 +16°C° 0 mm 3 mps 764 mmHg 79%
    21:00 +14°C° 0 mm 3 mps 765 mmHg 83%
    22:00 +14°C° 0 mm 2 mps 765 mmHg 84%
    23:00 +14°C° 0 mm 2 mps 765 mmHg 85%

    Day after tomorrow, 25 June, Monday

    Time Temperature Precipitation Wind Pressure Humidity
    00:00 +13°C° 0 mm 2 mps 765 mmHg 86%
    01:00 +13°C° 0 mm 1 mps 765 mmHg 87%
    02:00 +12°C° 0 mm 1 mps 765 mmHg 88%
    03:00 +12°C° 0 mm 1 mps 765 mmHg 89%
    04:00 +13°C° 0 mm 1 mps 765 mmHg 86%
    05:00 +14°C° 0 mm 1 mps 765 mmHg 83%
    06:00 +15°C° 0 mm 2 mps 765 mmHg 80%
    07:00 +17°C° 0 mm 2 mps 765 mmHg 75%
    08:00 +19°C° 0 mm 2 mps 765 mmHg 70%
    09:00 +20°C° 0 mm 3 mps 765 mmHg 64%
    10:00 +21°C° 0 mm 3 mps 765 mmHg 61%
    11:00 +22°C° 0 mm 3 mps 765 mmHg 58%
    12:00 +24°C° 0 mm 3 mps 765 mmHg 54%
    13:00 +24°C° 0 mm 3 mps 765 mmHg 55%
    14:00 +23°C° 0 mm 4 mps 765 mmHg 55%
    15:00 +25°C° 0 mm 4 mps 764 mmHg 56%
    16:00 +23°C° 0 mm 4 mps 764 mmHg 60%
    17:00 +22°C° 0 mm 3 mps 764 mmHg 64%
    18:00 +22°C° 0 mm 3 mps 765 mmHg 69%
    19:00 +19°C° 0 mm 3 mps 765 mmHg 73%
    20:00 +17°C° 0 mm 3 mps 765 mmHg 77%
    21:00 +14°C° 0 mm 3 mps 765 mmHg 82%
    22:00 +13°C° 0 mm 3 mps 765 mmHg 82%
    23:00 +14°C° 0 mm 2 mps 765 mmHg 81%

    26 June, Tuesday

    Time Temperature Precipitation Wind Pressure Humidity
    00:00 +13°C° 0 mm 2 mps 765 mmHg 81%
    01:00 +12°C° 0 mm 2 mps 765 mmHg 82%
    02:00 +12°C° 0 mm 2 mps 765 mmHg 84%
    03:00 +12°C° 0 mm 2 mps 765 mmHg 85%
    04:00 +13°C° 0 mm 2 mps 765 mmHg 83%
    05:00 +14°C° 0 mm 2 mps 765 mmHg 82%
    06:00 +15°C° 0 mm 2 mps 765 mmHg 80%
    07:00 +17°C° 0 mm 3 mps 765 mmHg 74%
    08:00 +18°C° 0 mm 3 mps 765 mmHg 69%
    09:00 +20°C° 0 mm 3 mps 765 mmHg 64%
    10:00 +21°C° 0 mm 4 mps 765 mmHg 60%
    11:00 +22°C° 0 mm 4 mps 765 mmHg 57%
    12:00 +23°C° 0 mm 4 mps 765 mmHg 54%
    13:00 +25°C° 0 mm 4 mps 765 mmHg 53%
    14:00 +25°C° 0 mm 5 mps 764 mmHg 53%
    15:00 +25°C° 0 mm 5 mps 764 mmHg 52%
    16:00 +25°C° 0 mm 4 mps 764 mmHg 56%
    17:00 +23°C° 0 mm 4 mps 764 mmHg 60%
    18:00 +22°C° 0 mm 4 mps 764 mmHg 64%
    19:00 +20°C° 0 mm 4 mps 764 mmHg 65%
    20:00 +18°C° 0 mm 3 mps 764 mmHg 67%
    21:00 +17°C° 0 mm 3 mps 764 mmHg 69%
    22:00 +16°C° 0 mm 3 mps 764 mmHg 70%
    23:00 +16°C° 0 mm 3 mps 764 mmHg 71%

    27 June, Wednesday

    Time Temperature Precipitation Wind Pressure Humidity
    00:00 +14°C° 0 mm 3 mps 764 mmHg 72%
    01:00 +14°C° 0 mm 3 mps 764 mmHg 77%
    02:00 +13°C° 0 mm 3 mps 764 mmHg 81%
    03:00 +13°C° 0 mm 3 mps 764 mmHg 86%
    04:00 +14°C° 0 mm 3 mps 764 mmHg 85%
    05:00 +16°C° 0 mm 3 mps 764 mmHg 84%
    06:00 +17°C° 0 mm 3 mps 764 mmHg 84%
    07:00 +19°C° 0 mm 3 mps 764 mmHg 79%
    08:00 +21°C° 0 mm 4 mps 764 mmHg 74%
    09:00 +22°C° 0 mm 4 mps 764 mmHg 69%
    10:00 +23°C° 0 mm 4 mps 764 mmHg 65%
    11:00 +26°C° 0 mm 4 mps 763 mmHg 61%
    12:00 +27°C° 0 mm 4 mps 763 mmHg 57%
    13:00 +27°C° 0 mm 4 mps 763 mmHg 56%
    14:00 +27°C° 0 mm 5 mps 762 mmHg 54%
    15:00 +28°C° 0 mm 5 mps 762 mmHg 53%
    16:00 +27°C° 0 mm 4 mps 762 mmHg 56%
    17:00 +26°C° 0 mm 4 mps 762 mmHg 59%
    18:00 +25°C° 0 mm 4 mps 762 mmHg 62%
    19:00 +23°C° 0 mm 4 mps 762 mmHg 63%
    20:00 +21°C° 0 mm 4 mps 762 mmHg 64%
    21:00 +19°C° 0 mm 4 mps 762 mmHg 65%
    22:00 +18°C° 0 mm 3 mps 762 mmHg 67%
    23:00 +18°C° 0 mm 3 mps 762 mmHg 68%

    28 June, Thursday

    Time Temperature Precipitation Wind Pressure Humidity
    00:00 +17°C° 0 mm 3 mps 762 mmHg 69%
    01:00 +16°C° 0 mm 3 mps 762 mmHg 73%
    02:00 +16°C° 0 mm 3 mps 762 mmHg 77%
    03:00 +15°C° 0 mm 2 mps 762 mmHg 81%
    04:00 +16°C° 0 mm 2 mps 761 mmHg 81%
    05:00 +17°C° 0 mm 2 mps 761 mmHg 81%
    06:00 +18°C° 0 mm 2 mps 761 mmHg 80%
    07:00 +20°C° 0 mm 2 mps 761 mmHg 75%
    08:00 +22°C° 0 mm 3 mps 761 mmHg 70%
    09:00 +25°C° 0 mm 3 mps 761 mmHg 66%
    10:00 +26°C° 0 mm 3 mps 761 mmHg 62%
    11:00 +27°C° 0 mm 4 mps 761 mmHg 58%
    12:00 +29°C° 0 mm 4 mps 760 mmHg 54%
    13:00 +29°C° 0 mm 4 mps 760 mmHg 53%
    14:00 +29°C° 0 mm 4 mps 760 mmHg 52%
    15:00 +29°C° 0 mm 5 mps 760 mmHg 50%
    16:00 +28°C° 0 mm 4 mps 759 mmHg 53%
    17:00 +27°C° 0 mm 4 mps 759 mmHg 56%
    18:00 +26°C° 0 mm 4 mps 759 mmHg 59%
    19:00 +23°C° 0 mm 4 mps 760 mmHg 61%
    20:00 +22°C° 0 mm 4 mps 760 mmHg 63%
    21:00 +20°C° 0 mm 4 mps 760 mmHg 65%
    22:00 +20°C° 0 mm 4 mps 760 mmHg 68%
    23:00 +19°C° 0 mm 3 mps 760 mmHg 71%
    Show more